Weather History for Plant City, FL

Change the Weather History Date:

Saturday, November 17, 2012

  Actual Average Record
Temperature  
Mean Temperature 69 °F -  
Max Temperature 78 °F 79 °F 88 °F (1948)
Min Temperature 60 °F 55 °F 24 °F (1940)
Cooling Degree Days 4    
Growing Degree Days 19 (Base 50)    
Moisture  
Dew Point 60 °F    
Average Humidity 74    
Maximum Humidity 100    
Minimum Humidity 47    
Precipitation  
Precipitation 0.00 in - - ()
Sea Level Pressure  
Sea Level Pressure 30.15 in    
Wind  
Wind Speed 7 mph (NNE)    
Max Wind Speed 16 mph    
Max Gust Speed 21 mph    
Visibility 8 miles    
Events      
Averages and records for this station are not official NWS values.
T = Trace of Precipitation, MM = Missing Value Source: NWS Daily Summary

Daily Weather History Graph

Daily Weather History Graph

Search for Another Location

Airport:

Trip Planner

Search our weather history database for the weather conditions in past years. The results will help you decide how hot, cold, wet, or windy it might be!

Date:

Astronomy

Nov. 17, 2012 Rise Set
Actual Time 6:52 AM EST 5:35 PM EST
Civil Twilight 6:27 AM EST 5:59 PM EST
Nautical Twilight 5:58 AM EST 6:28 PM EST
Astronomical Twilight 5:30 AM EST 6:56 PM EST
Moon 10:35 AM EST (11/17) 9:42 PM EST (11/17)
Length of Visible Light 11h 32m
Length of Day
10h 42m
Waxing Crescent, 20% of the Moon is Illuminated
Nov 17
Waxing Crescent
Nov 20
First Quarter
Nov 28
Full
Dec 6
Last Quarter
Dec 13
New

Hourly Weather History & Observations

Time (EST) Temp. Dew Point Humidity Pressure Visibility Wind Dir Wind Speed Gust Speed Precip Events Conditions
12:15 AM 60.8 °F 57.2 °F 88% 30.15 in 10.0 mi North 5.8 mph - N/A   Overcast
12:35 AM 60.8 °F 59.0 °F 94% 30.15 in 7.0 mi NNE 6.9 mph - N/A   Overcast
12:55 AM 60.8 °F 59.0 °F 94% 30.15 in 7.0 mi NNE 8.1 mph - N/A   Overcast
1:15 AM 60.8 °F 59.0 °F 94% 30.15 in 7.0 mi NNE 6.9 mph - N/A   Overcast
1:35 AM 60.8 °F 60.8 °F 100% 30.15 in 7.0 mi NNE 5.8 mph - N/A   Overcast
1:55 AM 60.8 °F 60.8 °F 100% 30.15 in 7.0 mi North 5.8 mph - N/A   Overcast
2:15 AM 60.8 °F 59.0 °F 94% 30.14 in 7.0 mi NNE 6.9 mph - N/A   Overcast
2:35 AM 60.8 °F 59.0 °F 94% 30.14 in 7.0 mi North 5.8 mph - N/A   Overcast
2:55 AM 60.8 °F 59.0 °F 94% 30.14 in 7.0 mi North 5.8 mph - N/A   Overcast
3:15 AM 60.8 °F 59.0 °F 94% 30.14 in 7.0 mi NNE 4.6 mph - N/A   Overcast
3:35 AM 60.8 °F 60.8 °F 100% 30.14 in 7.0 mi North 6.9 mph - N/A   Overcast
3:55 AM 60.8 °F 60.8 °F 100% 30.14 in 7.0 mi North 4.6 mph - N/A   Overcast
4:15 AM 60.8 °F 60.8 °F 100% 30.14 in 7.0 mi NNE 5.8 mph - N/A   Overcast
4:55 AM 60.8 °F - N/A% 30.15 in 5.0 mi NNE 8.1 mph - N/A   Haze
5:15 AM 60.8 °F - N/A% 30.15 in 5.0 mi NNE 5.8 mph - N/A   Haze
5:35 AM 60.8 °F - N/A% 30.15 in 5.0 mi NNE 4.6 mph - N/A   Haze
5:55 AM 60.8 °F - N/A% 30.16 in 5.0 mi NNE 8.1 mph - N/A   Haze
6:15 AM 60.8 °F - N/A% 30.16 in 5.0 mi NE 6.9 mph - N/A   Haze
6:35 AM 60.8 °F - N/A% 30.16 in 5.0 mi NE 5.8 mph - N/A   Haze
6:55 AM 60.8 °F - N/A% 30.17 in 7.0 mi NE 8.1 mph - N/A   Overcast
7:15 AM 60.8 °F - N/A% 30.17 in 5.0 mi NE 5.8 mph - N/A   Haze
7:35 AM 60.8 °F - N/A% 30.17 in 5.0 mi NE 4.6 mph - N/A   Haze
7:55 AM 62.6 °F - N/A% 30.18 in 5.0 mi NE 5.8 mph - N/A   Haze
8:15 AM 64.4 °F - N/A% 30.18 in 5.0 mi NE 6.9 mph - N/A   Haze
8:35 AM 64.4 °F - N/A% 30.18 in 7.0 mi NE 8.1 mph - N/A   Overcast
8:55 AM 66.2 °F - N/A% 30.18 in 7.0 mi NE 6.9 mph - N/A   Mostly Cloudy
9:15 AM 68.0 °F 60.8 °F 78% 30.18 in 7.0 mi NE 4.6 mph - N/A   Clear
9:35 AM 68.0 °F 60.8 °F 78% 30.18 in 7.0 mi ENE 3.5 mph - N/A   Scattered Clouds
9:55 AM 69.8 °F 60.8 °F 73% 30.17 in 10.0 mi NNE 5.8 mph - N/A   Clear
10:15 AM 73.4 °F 59.0 °F 61% 30.17 in 10.0 mi NNE 6.9 mph - N/A   Clear
10:35 AM 73.4 °F 59.0 °F 61% 30.17 in 10.0 mi ENE 9.2 mph - N/A   Clear
10:55 AM 75.2 °F 59.0 °F 57% 30.17 in 10.0 mi ENE 9.2 mph - N/A   Clear
11:15 AM 77.0 °F 59.0 °F 54% 30.16 in 10.0 mi East 4.6 mph - N/A   Clear
11:35 AM 77.0 °F 59.0 °F 54% 30.15 in 10.0 mi ENE 4.6 mph - N/A   Clear
12:55 PM 77.0 °F 59.0 °F 54% 30.13 in 10.0 mi North 3.5 mph - N/A   Scattered Clouds
1:15 PM 78.8 °F 59.0 °F 51% 30.12 in 10.0 mi Calm Calm - N/A   Scattered Clouds
1:35 PM 77.0 °F 59.0 °F 54% 30.12 in 10.0 mi Calm Calm - N/A   Mostly Cloudy
1:55 PM 77.0 °F 57.2 °F 50% 30.11 in 10.0 mi NNE 4.6 mph - N/A   Mostly Cloudy
2:15 PM 77.0 °F 59.0 °F 54% 30.11 in 10.0 mi NNW 5.8 mph - N/A   Mostly Cloudy
2:35 PM 78.8 °F 59.0 °F 51% 30.11 in 10.0 mi North 9.2 mph - N/A   Mostly Cloudy
2:55 PM 78.8 °F 59.0 °F 51% 30.10 in 10.0 mi NE 9.2 mph 16.1 mph N/A   Scattered Clouds
3:15 PM 77.0 °F 59.0 °F 54% 30.10 in 10.0 mi NNE 8.1 mph - N/A   Mostly Cloudy
3:35 PM 77.0 °F 59.0 °F 54% 30.10 in 10.0 mi NNE 8.1 mph - N/A   Scattered Clouds
3:55 PM 78.8 °F 59.0 °F 51% 30.10 in 10.0 mi NE 9.2 mph - N/A   Scattered Clouds
4:15 PM 78.8 °F 57.2 °F 47% 30.10 in 10.0 mi ENE 10.4 mph - N/A   Clear
4:35 PM 78.8 °F 57.2 °F 47% 30.10 in 10.0 mi NNE 5.8 mph - N/A   Scattered Clouds
4:55 PM 75.2 °F 59.0 °F 57% 30.11 in 10.0 mi North 5.8 mph 16.1 mph N/A   Mostly Cloudy
5:15 PM 75.2 °F 60.8 °F 61% 30.12 in 10.0 mi North 9.2 mph - N/A   Scattered Clouds
5:35 PM 73.4 °F 62.6 °F 69% 30.12 in 10.0 mi North 11.5 mph 17.3 mph N/A   Scattered Clouds
5:55 PM 71.6 °F 62.6 °F 73% 30.13 in 10.0 mi NNE 10.4 mph - N/A   Mostly Cloudy
6:15 PM 69.8 °F 62.6 °F 78% 30.14 in 10.0 mi NNE 11.5 mph 16.1 mph N/A   Scattered Clouds
6:35 PM 69.8 °F 60.8 °F 73% 30.14 in 10.0 mi NNE 8.1 mph 16.1 mph N/A   Scattered Clouds
6:55 PM 68.0 °F 60.8 °F 78% 30.15 in 10.0 mi NNE 16.1 mph 20.7 mph N/A   Scattered Clouds
7:15 PM 68.0 °F 60.8 °F 78% 30.16 in 10.0 mi NNE 12.7 mph 16.1 mph N/A   Clear
7:35 PM 66.2 °F 60.8 °F 83% 30.16 in 10.0 mi NNE 9.2 mph 16.1 mph N/A   Clear
7:55 PM 66.2 °F 59.0 °F 78% 30.17 in 10.0 mi NNE 10.4 mph 17.3 mph N/A   Clear
8:15 PM 64.4 °F 59.0 °F 83% 30.18 in 10.0 mi NNE 9.2 mph 19.6 mph N/A   Scattered Clouds
8:35 PM 64.4 °F 60.8 °F 88% 30.18 in 10.0 mi NE 8.1 mph 17.3 mph N/A   Mostly Cloudy
8:55 PM 64.4 °F 59.0 °F 83% 30.18 in 10.0 mi NE 10.4 mph 19.6 mph N/A   Mostly Cloudy
9:15 PM 64.4 °F 59.0 °F 83% 30.18 in 10.0 mi NNE 10.4 mph 17.3 mph N/A   Overcast
9:35 PM 66.2 °F 59.0 °F 78% 30.19 in 10.0 mi NE 10.4 mph 17.3 mph N/A   Overcast
9:55 PM 66.2 °F 59.0 °F 78% 30.19 in 10.0 mi NE 11.5 mph - N/A   Overcast
10:15 PM 66.2 °F 59.0 °F 78% 30.19 in 10.0 mi NE 9.2 mph 16.1 mph N/A   Overcast
10:35 PM 66.2 °F 59.0 °F 78% 30.19 in 10.0 mi NE 13.8 mph 18.4 mph N/A   Overcast
10:55 PM 66.2 °F 59.0 °F 78% 30.19 in 10.0 mi NNE 5.8 mph - N/A   Overcast
11:15 PM 64.4 °F 59.0 °F 83% 30.18 in 10.0 mi NNE 9.2 mph - N/A   Overcast
11:35 PM 64.4 °F 59.0 °F 83% 30.17 in 10.0 mi NNE 10.4 mph 17.3 mph N/A   Overcast
11:55 PM 64.4 °F 59.0 °F 83% 30.17 in 10.0 mi NNE 6.9 mph - N/A   Overcast